Regional Weather Roundup
Issued by NWS

Home | Current Version | Previous Version | Text Only | Print | Product List | Glossary Off
Versions: 1 2 3 4 5 6 7 8 9 10 11 12 13 14 15 16 17 18 19 20 21 22 23 24 25 26 27 28 29 30 31 32 33 34 35 36 37 38 39 40 41 42 43 44 45 46 47 48 49 50

000
ASUS45 KPSR 041110
RWRAZ

ARIZONA HOURLY REGIONAL WEATHER ROUNDUP
NATIONAL WEATHER SERVICE PHOENIX AZ
400 AM MST WED MAY 04 2016

NOTE: FAIR INDICATES FEW OR NO CLOUDS BELOW 12,000 FEET WITH NO
SIGNIFICANT WEATHER AND/OR OBSTRUCTIONS TO VISIBILITY.

AZZ001>003-036-041200-
NORTHWEST ARIZONA

CITY           SKY/WX    TMP DP  RH WIND       PRES   REMARKS
BULLHEAD CITY  CLEAR     72  41  33 CALM      29.88S
KINGMAN        CLEAR     63  34  33 VRB3      30.01S
$$

AZZ004>008-015-016-018-041200-
NORTH CENTRAL ARIZONA

CITY           SKY/WX    TMP DP  RH WIND       PRES   REMARKS
GRAND CANYON   PTCLDY    37  30  75 CALM      30.23F
WILLIAMS       CLEAR     37  30  75 S8        30.28F WCI  31
PRESCOTT       CLEAR     48  35  60 CALM      30.11F
FLAGSTAFF      CLEAR     40  30  67 E6        30.23F
PAYSON         CLEAR     59  27  29 E6        30.16R
PAGE           PTCLDY    55  33  43 W3        30.14S
$$

AZZ009>014-017-041200-
NORTHEAST ARIZONA

CITY           SKY/WX    TMP DP  RH WIND       PRES   REMARKS
WINSLOW        CLEAR     45  38  76 S3        30.17R
SAINT JOHNS    PTCLDY    47  30  51 SE8       30.21S
WINDOW ROCK    CLEAR     36  30  79 CALM      30.31R
SHOW LOW       CLEAR     48  27  43 S6        30.23S
$$

AZZ023-041200-
GREATER PHOENIX AREA

CITY           SKY/WX    TMP DP  RH WIND       PRES   REMARKS
PHOENIX        CLEAR     71  38  29 E7        29.86S
BUCKEYE        CLEAR     63  27  25 CALM      29.88S
LUKE AFB       CLEAR     65  39  39 N10       29.86S
DEER VALLEY    CLEAR     71  32  23 CALM      29.88F
SCOTTSDALE     CLEAR     70  38  31 CALM      29.90S
MESA-GATEWAY   CLEAR     64  36  34 SE6       29.90S
$$

AZZ027-028-041200-
SOUTHWEST MARICOPA COUNTY AND PINAL COUNTY

CITY           SKY/WX    TMP DP  RH WIND       PRES   REMARKS
CASA GRANDE    CLEAR    N/A N/A N/A MISG        N/A
GILA BEND      FAIR      67  25  20 SE9       29.84F
$$

AZZ503-504-507>509-041200-
SOUTHEAST ARIZONA

CITY           SKY/WX    TMP DP  RH WIND       PRES   REMARKS
TUCSON         CLEAR     64  25  22 SE8       29.97F
DAVIS-MONTHAN  CLEAR     70  28  21 S6        29.96S
NOGALES        CLEAR     52  26  36 NE3       30.03S
SIERRA VISTA   CLEAR     65  25  22 S10       30.10S
DOUGLAS        CLEAR     68  27  21 E16       30.08S
SAFFORD        CLEAR     65  28  24 E10       30.06S
$$

AZZ020-021-025-026-031-041200-
SOUTHWEST ARIZONA

CITY           SKY/WX    TMP DP  RH WIND       PRES   REMARKS
YUMA           CLEAR     68  40  35 CALM      29.81S
$$

CAZ031-033-041-043-047-048-061-041200-
SOUTHERN CALIFORNIA

CITY           SKY/WX    TMP DP  RH WIND       PRES   REMARKS
DOWNTOWN L.A.  CLOUDY    57  54  89 CALM      29.93F
L.A. AIRPORT   MOCLDY    57  54  89 N3        29.93F
SAN DIEGO      CLOUDY    62  54  74 NW5       29.96S
BURBANK        CLEAR     57  52  83 E5        29.92F
ONTARIO        PTCLDY    57  53  86 SW6       29.93F FOG
RIVERSIDE      CLEAR     58  52  80 CALM      29.93F
PALM SPRINGS   CLEAR     74  38  27 N5        29.84F
EL CENTRO NAS  CLEAR    N/A N/A N/A NW3       29.81F
IMPERIAL       CLEAR     73  38  27 NW5       29.79F
BLYTHE         CLEAR     67  30  25 N10       29.82F
NEEDLES        CLEAR     71  39  31 SW5       29.86S
$$

NVZ020-UTZ003-041200-
SOUTHERN NEVADA-UTAH

CITY           SKY/WX    TMP DP  RH WIND       PRES   REMARKS
LAS VEGAS      CLEAR     67  40  37 W6        29.90F
SALT LAKE CITY CLEAR     54  35  48 S10       30.13S
$$

NMZ009-TXZ055-041200-
NEW MEXICO-WEST TEXAS

CITY           SKY/WX    TMP DP  RH WIND       PRES   REMARKS
ALBUQUERQUE    CLEAR     53  31  42 N9        30.28S
EL PASO        CLEAR     62  34  35 E3        30.19R
$$


........................KEY........................
SKY/WX - SKY CONDITION/WEATHER
TMP    - TEMPERATURE IN FAHRENHEIT
DP     - DEW POINT IN FAHRENHEIT
RH     - RELATIVE HUMIDITY IN PERCENT
WIND   - DIRECTION AND SPEED IN MILES PER HOUR (MPH)
VRB    - VARIABLE WIND DIRECTION
PRES   - MEAN SEA LEVEL PRESSURE IN INCHES OF MERCURY
         F - FALLING PRESSURE   R - RISING PRESSURE
         S - STEADY PRESSURE
VSB    - VISIBILITY IN MILES
HX     - HEAT INDEX IN FAHRENHEIT
WCI    - WIND CHILL INDEX IN FAHRENHEIT
TC     - TEMPERATURE IN CELSIUS WHICH IS ALSO KNOWN AS
         TEMPERATURE IN CENTIGRADE
AFB    - AIR FORCE BASE
         LUKE AFB IS LUKE AIR FORCE BASE
         DAVIS-MONTHAN IS DAVIS-MONTHAN AIR FORCE BASE
NAS    - NAVAL AIR STATION
         EL CENTRO NAS IS EL CENTRO NAVAL AIR STATION
N/A    - NOT AVAILABLE




USA.gov is the U.S. government's official web portal to all federal, state and local government web resources and services.